AT518 Weather Reports


time (UTC)temp
F
wind
direction
speed
knots
gust
knots
rain 1hr
in
rain 24hr
in
rain mn
in
humidity
%
barometer
mb
20260506111549 73 184 0.9 2.6 0.00 0.00 0.00 94 1011.1
20260506110047 73 0 0.9 2.6 0.00 0.00 0.00 94 1011.0
20260506104550 73 0 0.0 2.6 0.00 0.00 0.00 94 1010.9
20260506103047 73 0 1.7 4.3 0.00 0.00 0.00 93 1010.6
20260506101549 73 182 2.6 6.1 0.00 0.00 0.00 93 1010.4
20260506100050 73 182 3.5 7.0 0.00 0.00 0.00 93 1010.5
20260506094619 73 184 4.3 8.7 0.00 0.00 0.00 93 1010.2
20260506093047 73 185 5.2 10.4 0.00 0.00 0.00 92 1010.3
20260506091553 73 188 5.2 9.6 0.00 0.00 0.00 92 1010.4
20260506090051 73 180 6.1 12.2 0.00 0.00 0.00 92 1010.2
20260506084555 73 178 6.1 9.6 0.00 0.00 0.00 93 1010.3
20260506083053 73 184 6.1 11.3 0.00 0.00 0.00 93 1010.2
20260506081617 73 196 5.2 9.6 0.00 0.00 0.00 93 1010.5
20260506073051 73 180 5.2 13.0 0.00 0.00 0.00 94 1010.4
20260506071550 73 194 5.2 11.3 0.00 0.00 0.00 94 1010.6
20260506061551 72 164 4.3 7.8 0.00 0.00 0.00 93 1010.3
20260506060109 72 175 6.1 10.4 0.00 0.00 0.00 93 1009.8
20260506044544 74 175 6.1 9.6 0.00 0.00 0.00 91 1009.9
20260506043047 74 180 5.2 10.4 0.00 0.00 0.00 91 1009.9
20260506041550 74 188 6.1 12.2 0.00 0.00 0.00 90 1009.8
20260506040050 74 168 8.7 16.5 0.00 0.00 0.00 90 1009.4
20260506034546 75 173 7.8 13.9 0.00 0.00 0.00 90 1009.2
20260506033047 75 172 8.7 13.0 0.00 0.00 0.00 90 1009.0
20260506031551 75 166 6.1 11.3 0.00 0.00 0.00 90 1009.0
20260506030052 74 140 5.2 10.4 0.00 0.00 0.00 90 1008.7
20260506024557 74 147 1.7 6.1 0.00 0.00 0.00 90 1008.6
20260506023046 74 147 2.6 6.1 0.00 0.00 0.00 89 1008.3
20260506021545 74 163 0.9 4.3 0.00 0.00 0.00 89 1008.1
20260506020047 75 0 0.0 2.6 0.00 0.00 0.00 88 1007.9
20260506014549 75 0 0.0 4.3 0.00 0.00 0.00 87 1007.9
20260506013049 76 179 1.7 5.2 0.00 0.00 0.00 85 1007.8
20260506011547 77 170 2.6 7.8 0.00 0.00 0.00 83 1007.5
20260506010046 78 185 3.5 9.6 0.00 0.00 0.00 82 1007.5
20260506004552 79 164 4.3 9.6 0.00 0.00 0.00 81 1007.5
20260506003050 80 183 1.7 7.8 0.00 0.00 0.00 80 1007.6
20260506001550 80 199 4.3 7.8 0.00 0.00 0.00 79 1007.3
20260506000056 81 180 7.0 11.3 0.00 0.00 0.00 77 1007.1
20260505234551 81 186 7.0 12.2 0.00 0.00 0.00 78 1007.2
20260505233050 81 173 7.8 14.8 0.00 0.00 0.00 77 1006.9
20260505231601 80 192 7.0 16.5 0.00 0.00 0.00 77 1007.0
20260505230057 81 201 10.4 20.0 0.00 0.00 0.00 76 1006.9
20260505224554 82 164 9.6 19.1 0.00 0.00 0.00 76 1006.7
20260505223043 81 173 8.7 15.6 0.00 0.00 0.00 75 1006.9
20260505221552 81 192 10.4 18.2 0.00 0.00 0.00 76 1006.9
20260505220055 82 219 9.6 18.2 0.00 0.00 0.00 75 1006.9
20260505214544 81 188 7.8 16.5 0.00 0.00 0.00 77 1007.2
20260505213058 82 202 8.7 15.6 0.00 0.00 0.00 76 1007.2
20260505211550 81 198 10.4 16.5 0.00 0.00 0.00 76 1007.6
20260505210050 80 174 8.7 17.4 0.00 0.00 0.00 77 1007.8
20260505204550 81 188 9.6 15.6 0.00 0.00 0.00 77 1007.7
20260505203048 81 202 10.4 20.0 0.00 0.00 0.00 77 1007.7
20260505201549 80 221 10.4 22.6 0.00 0.00 0.00 78 1007.9
20260505200049 79 178 14.8 22.6 0.00 0.00 0.00 78 1008.0
20260505194552 80 201 11.3 22.6 0.00 0.00 0.00 79 1008.2
20260505193049 79 186 12.2 22.6 0.00 0.00 0.00 80 1008.5
20260505191608 78 183 13.9 25.2 0.00 0.00 0.00 80 1008.3
20260505190052 79 208 13.9 23.5 0.00 0.00 0.00 79 1008.3
20260505184550 78 219 13.0 20.0 0.00 0.00 0.00 81 1008.5
20260505183050 77 187 12.2 21.7 0.00 0.00 0.00 84 1008.8
20260505181551 76 190 10.4 24.3 0.00 0.00 0.00 85 1009.0
20260505174559 75 177 10.4 19.1 0.00 0.00 0.00 86 1009.2
20260505173047 74 177 13.9 20.0 0.00 0.00 0.00 86 1009.2
20260505171551 73 190 11.3 20.9 0.00 0.00 0.00 87 1009.4
20260505170049 73 221 10.4 18.2 0.00 0.00 0.00 88 1009.5
20260505164552 73 190 11.3 20.0 0.00 0.00 0.00 89 1009.6
20260505163046 72 178 8.7 18.2 0.00 0.00 0.00 89 1009.7
20260505161553 72 172 10.4 20.9 0.00 0.00 0.00 89 1009.7
20260505153050 71 191 8.7 16.5 0.00 0.00 0.00 90 1009.6
20260505151551 71 180 8.7 16.5 0.00 0.00 0.00 90 1009.7
20260505124550 69 185 11.3 17.4 0.00 0.00 0.00 88 1008.5
20260505123051 69 192 9.6 17.4 0.00 0.00 0.00 88 1008.4
20260505121554 69 184 9.6 19.1 0.00 0.00 0.00 88 1008.2
20260505120053 69 195 11.3 18.2 0.00 0.00 0.00 88 1008.2
20260505114555 69 166 10.4 19.1 0.00 0.00 0.00 89 1008.3
20260505113049 69 182 9.6 18.2 0.00 0.00 0.00 89 1008.2